EW2784 Weather Reports


Display with metric or nautical units.
time (UTC)temp
F
wind
direction
speed
MPH
gust
MPH
rain 1hr
in
rain 24hr
in
rain mn
in
humidity
%
barometer
mb
20201023053300 62 156 0.0 3.0 0.00 0.00 0.00 85 1018.8
20201023052807 62 0 0.0 3.0 0.00 0.00 0.00 85 1018.8
20201023052305 63 0 0.0 3.0 0.00 0.00 0.00 85 1018.8
20201023051800 63 152 0.0 3.0 0.00 0.00 0.00 85 1018.8
20201023051304 62 0 0.0 3.0 0.00 0.00 0.00 85 1018.8
20201023050759 62 0 0.0 3.0 0.00 0.00 0.00 85 1018.9
20201023050300 62 222 0.0 3.0 0.00 0.00 0.00 86 1018.9
20201023045807 62 0 0.0 3.0 0.00 0.00 0.00 86 1019.0
20201023045306 62 0 0.0 3.0 0.00 0.00 0.00 86 1019.0
20201023044801 62 0 0.0 3.0 0.00 0.00 0.00 86 1019.0
20201023044300 62 0 0.0 3.0 0.00 0.00 0.00 86 1019.1
20201023043802 62 0 0.0 3.0 0.00 0.00 0.00 86 1019.1
20201023043306 62 205 0.0 3.0 0.00 0.00 0.00 86 1019.2
20201023042800 62 0 0.0 4.0 0.00 0.00 0.00 86 1019.3
20201023042305 62 0 0.0 4.0 0.00 0.00 0.00 86 1019.2
20201023041802 62 0 0.0 2.0 0.00 0.00 0.00 86 1019.3
20201023041305 62 0 0.0 2.0 0.00 0.00 0.00 86 1019.4
20201023040800 62 0 0.0 2.0 0.00 0.00 0.00 86 1019.4
20201023040301 62 0 0.0 2.0 0.00 0.00 0.00 86 1019.4
20201023035802 62 0 0.0 4.0 0.00 0.00 0.00 86 1019.5
20201023035258 62 0 0.0 4.0 0.00 0.00 0.00 86 1019.5
20201023034757 62 94 0.0 4.0 0.00 0.00 0.00 86 1019.6
20201023034256 62 213 0.0 2.0 0.00 0.00 0.00 85 1019.6
20201023033755 62 0 0.0 1.0 0.00 0.00 0.00 85 1019.6
20201023033257 63 0 0.0 3.0 0.00 0.00 0.00 86 1019.7
20201023032757 63 0 0.0 3.0 0.00 0.00 0.00 85 1019.7
20201023032257 63 0 0.0 1.0 0.00 0.00 0.00 85 1019.7
20201023031755 63 0 0.0 1.0 0.00 0.00 0.00 85 1019.7
20201023031255 63 0 0.0 2.0 0.00 0.00 0.00 85 1019.9
20201023030756 63 0 0.0 2.0 0.00 0.00 0.00 84 1019.9
20201023030255 63 0 0.0 3.0 0.00 0.00 0.00 84 1019.9
20201023025757 63 0 0.0 3.0 0.00 0.00 0.00 84 1020.0
20201023025256 63 0 0.0 2.0 0.00 0.00 0.00 85 1020.1
20201023024756 64 0 0.0 2.0 0.00 0.00 0.00 84 1020.2
20201023024256 64 0 0.0 2.0 0.00 0.00 0.00 85 1020.2
20201023023756 64 0 0.0 2.0 0.00 0.00 0.00 84 1020.2
20201023023255 63 0 0.0 1.0 0.00 0.00 0.00 84 1020.2
20201023022755 64 0 0.0 2.0 0.00 0.00 0.00 85 1020.3
20201023022259 64 0 0.0 2.0 0.00 0.00 0.00 85 1020.2
20201023021756 63 0 0.0 2.0 0.00 0.00 0.00 85 1020.2
20201023021253 63 222 0.0 2.0 0.00 0.00 0.00 85 1020.2
20201023020752 63 0 0.0 0.0 0.00 0.00 0.00 85 1020.2
20201023020252 63 0 0.0 0.0 0.00 0.00 0.00 85 1020.2
20201023015749 64 0 0.0 0.0 0.00 0.00 0.00 85 1020.3
20201023015251 64 0 0.0 0.0 0.00 0.00 0.00 85 1020.2
20201023014750 64 0 0.0 0.0 0.00 0.00 0.00 84 1020.3
20201023014250 64 0 0.0 0.0 0.00 0.00 0.00 84 1020.3
20201023013751 64 0 0.0 2.0 0.00 0.00 0.00 85 1020.3
20201023013251 64 0 0.0 2.0 0.00 0.00 0.00 85 1020.4
20201023012750 64 0 0.0 0.0 0.00 0.00 0.00 84 1020.5
20201023012250 64 0 0.0 0.0 0.00 0.00 0.00 84 1020.5
20201023011752 65 0 0.0 1.0 0.00 0.00 0.00 84 1020.5
20201023011252 65 0 0.0 2.0 0.00 0.00 0.00 84 1020.6
20201023010750 65 0 0.0 2.0 0.00 0.00 0.00 84 1020.6
20201023010252 65 0 0.0 1.0 0.00 0.00 0.00 84 1020.6
20201023005750 65 0 0.0 2.0 0.00 0.00 0.00 84 1020.6
20201023005250 65 0 0.0 2.0 0.00 0.00 0.00 84 1020.6
20201023004751 65 0 0.0 2.0 0.00 0.00 0.00 84 1020.7
20201023004257 65 0 0.0 0.0 0.00 0.00 0.00 83 1020.7
20201023003750 65 0 0.0 0.0 0.00 0.00 0.00 83 1020.7
20201023003248 66 0 0.0 0.0 0.00 0.00 0.00 83 1020.6
20201023002753 66 0 0.0 0.0 0.00 0.00 0.00 83 1020.7
20201023002254 66 0 0.0 0.0 0.00 0.00 0.00 83 1020.7
20201023001747 66 0 0.0 0.0 0.00 0.00 0.00 82 1020.6
20201023001250 66 0 0.0 0.0 0.00 0.00 0.00 82 1020.6
20201023000751 66 0 0.0 0.0 0.00 0.00 0.00 81 1020.6
20201023000253 66 0 0.0 1.0 0.00 0.00 0.00 81 1020.6
20201022235750 67 0 0.0 1.0 0.00 0.00 0.00 80 1020.6
20201022235249 67 0 0.0 0.0 0.00 0.00 0.00 80 1020.5
20201022234748 67 0 0.0 1.0 0.00 0.00 0.00 80 1020.5
20201022234249 67 0 0.0 1.0 0.00 0.00 0.00 79 1020.5
20201022233749 68 0 0.0 1.0 0.00 0.00 0.00 79 1020.5
20201022233253 68 0 0.0 1.0 0.00 0.00 0.00 79 1020.4
20201022232748 68 0 0.0 2.0 0.00 0.00 0.00 78 1020.4
20201022232248 69 0 0.0 2.0 0.00 0.00 0.00 78 1020.4
20201022231752 69 0 0.0 0.0 0.00 0.00 0.00 77 1020.3
20201022231251 69 0 0.0 1.0 0.00 0.00 0.00 77 1020.4
20201022230748 69 0 0.0 1.0 0.00 0.00 0.00 76 1020.4
20201022230245 70 0 0.0 2.0 0.00 0.00 0.00 76 1020.3
20201022225747 70 0 0.0 2.0 0.00 0.00 0.00 76 1020.3
20201022225247 70 0 0.0 0.0 0.00 0.00 0.00 75 1020.4
20201022224743 71 0 0.0 0.0 0.00 0.00 0.00 75 1020.3
20201022224242 71 0 0.0 0.0 0.00 0.00 0.00 74 1020.3
20201022223745 71 0 0.0 0.0 0.00 0.00 0.00 74 1020.3
20201022223243 72 0 0.0 1.0 0.00 0.00 0.00 73 1020.3
20201022222743 72 0 0.0 1.0 0.00 0.00 0.00 72 1020.3
20201022222242 72 0 0.0 1.0 0.00 0.00 0.00 72 1020.3
20201022221747 73 0 0.0 2.0 0.00 0.00 0.00 71 1020.3
20201022221243 73 0 0.0 2.0 0.00 0.00 0.00 70 1020.3
20201022220742 73 248 1.0 2.0 0.00 0.00 0.00 70 1020.3
20201022220242 74 187 1.0 4.0 0.00 0.00 0.00 69 1020.2
20201022215741 74 249 1.0 4.0 0.00 0.00 0.00 68 1020.2
20201022215245 74 214 1.0 3.0 0.00 0.00 0.00 67 1020.2
20201022214742 74 0 2.0 4.0 0.00 0.00 0.00 67 1020.2
20201022214243 74 184 1.0 4.0 0.00 0.00 0.00 67 1020.2
20201022213742 75 228 2.0 5.0 0.00 0.00 0.00 67 1020.2
20201022213240 74 171 2.0 6.0 0.00 0.00 0.00 66 1020.3
20201022212741 75 248 2.0 6.0 0.00 0.00 0.00 66 1020.3
20201022212240 75 253 2.0 6.0 0.00 0.00 0.00 66 1020.2
20201022211738 75 265 2.0 6.0 0.00 0.00 0.00 66 1020.2
20201022211240 75 254 3.0 8.0 0.00 0.00 0.00 66 1020.3
20201022210739 75 240 4.0 9.0 0.00 0.00 0.00 64 1020.2
20201022210241 75 300 3.0 9.0 0.00 0.00 0.00 64 1020.2
20201022205738 76 238 2.0 6.0 0.00 0.00 0.00 64 1020.2
20201022205240 76 256 3.0 9.0 0.00 0.00 0.00 63 1020.2
20201022204738 75 238 3.0 9.0 0.00 0.00 0.00 63 1020.2
20201022204238 76 225 3.0 8.0 0.00 0.00 0.00 65 1020.1
20201022203740 76 246 3.0 10.0 0.00 0.00 0.00 64 1020.2
20201022203242 76 227 4.0 12.0 0.00 0.00 0.00 62 1020.1
20201022202741 76 242 4.0 12.0 0.00 0.00 0.00 62 1020.1
20201022202239 76 245 4.0 10.0 0.00 0.00 0.00 62 1020.0
20201022201736 76 254 5.0 10.0 0.00 0.00 0.00 61 1020.0
20201022201232 77 297 4.0 11.0 0.00 0.00 0.00 61 1020.0
20201022200737 76 252 4.0 11.0 0.00 0.00 0.00 61 1019.9
20201022200226 76 221 4.0 9.0 0.00 0.00 0.00 60 1020.0
20201022195727 76 272 4.0 11.0 0.00 0.00 0.00 62 1020.0
20201022195228 77 239 4.0 11.0 0.00 0.00 0.00 62 1020.0
20201022194727 77 242 4.0 10.0 0.00 0.00 0.00 63 1020.0
20201022194226 76 249 3.0 10.0 0.00 0.00 0.00 63 1020.0
20201022193730 76 293 3.0 10.0 0.00 0.00 0.00 65 1020.1
20201022193226 77 215 3.0 10.0 0.00 0.00 0.00 64 1020.1
20201022192728 77 202 3.0 7.0 0.00 0.00 0.00 64 1020.2
20201022192227 77 169 3.0 7.0 0.00 0.00 0.00 65 1020.3
20201022191729 77 209 3.0 7.0 0.00 0.00 0.00 66 1020.3
20201022191227 76 189 3.0 7.0 0.00 0.00 0.00 67 1020.4
20201022190724 76 197 3.0 7.0 0.00 0.00 0.00 65 1020.5
20201022190224 77 221 4.0 10.0 0.00 0.00 0.00 65 1020.5
20201022185724 77 221 4.0 10.0 0.00 0.00 0.00 65 1020.6
20201022185225 77 204 4.0 9.0 0.00 0.00 0.00 65 1020.6
20201022184725 77 209 4.0 9.0 0.00 0.00 0.00 65 1020.7
20201022184225 77 249 4.0 10.0 0.00 0.00 0.00 64 1020.7
20201022183728 77 159 4.0 10.0 0.00 0.00 0.00 66 1020.8
20201022183225 77 217 4.0 9.0 0.00 0.00 0.00 64 1020.8
20201022182725 78 256 4.0 11.0 0.00 0.00 0.00 63 1020.8
20201022182338 78 267 4.0 11.0 0.00 0.00 0.00 63 1021.0
20201022181913 78 242 3.0 11.0 0.00 0.00 0.00 64 1021.0
20201022180726 78 235 4.0 10.0 0.00 0.00 0.00 66 1021.1
20201022180224 78 230 4.0 10.0 0.00 0.00 0.00 64 1021.2
20201022175729 77 255 3.0 9.0 0.00 0.00 0.00 65 1021.3
20201022175228 77 292 3.0 8.0 0.00 0.00 0.00 65 1021.5
20201022174728 77 203 3.0 12.0 0.00 0.00 0.00 66 1021.6
20201022174228 77 166 4.0 12.0 0.00 0.00 0.00 66 1021.6
20201022173733 77 190 4.0 8.0 0.00 0.00 0.00 65 1021.7
20201022173226 77 244 4.0 9.0 0.00 0.00 0.00 66 1021.8
20201022172727 77 285 3.0 9.0 0.00 0.00 0.00 64 1021.9
20201022172225 77 247 3.0 7.0 0.00 0.00 0.00 65 1022.0
20201022171728 77 209 4.0 8.0 0.00 0.00 0.00 66 1022.2
20201022171234 77 327 4.0 10.0 0.00 0.00 0.00 66 1022.2
20201022170723 77 253 4.0 10.0 0.00 0.00 0.00 67 1022.3
20201022170222 77 240 4.0 9.0 0.00 0.00 0.00 65 1022.4
20201022165719 77 281 4.0 9.0 0.00 0.00 0.00 65 1022.5
20201022165213 77 270 4.0 9.0 0.00 0.00 0.00 67 1022.5
20201022164713 76 214 4.0 10.0 0.00 0.00 0.00 66 1022.6
20201022164214 76 250 4.0 10.0 0.00 0.00 0.00 67 1022.6
20201022163733 77 205 3.0 6.0 0.00 0.00 0.00 67 1022.7
20201022163213 76 231 3.0 7.0 0.00 0.00 0.00 68 1022.8
20201022162714 76 0 4.0 9.0 0.00 0.00 0.00 68 1022.9
20201022162217 76 253 4.0 9.0 0.00 0.00 0.00 66 1023.0
20201022161711 76 254 4.0 10.0 0.00 0.00 0.00 68 1023.0
20201022161211 76 270 4.0 10.0 0.00 0.00 0.00 68 1023.1
20201022160712 76 249 4.0 8.0 0.00 0.00 0.00 69 1023.1
20201022160212 76 272 3.0 8.0 0.00 0.00 0.00 69 1023.2
20201022155711 75 209 3.0 8.0 0.00 0.00 0.00 69 1023.2
20201022155214 75 228 3.0 8.0 0.00 0.00 0.00 69 1023.2
20201022154711 75 216 3.0 7.0 0.00 0.00 0.00 69 1023.2
20201022154213 74 276 3.0 6.0 0.00 0.00 0.00 70 1023.2
20201022153713 74 0 3.0 7.0 0.00 0.00 0.00 69 1023.3
20201022153211 74 277 4.0 8.0 0.00 0.00 0.00 70 1023.3
20201022152712 74 236 4.0 8.0 0.00 0.00 0.00 72 1023.5
20201022152209 74 220 3.0 7.0 0.00 0.00 0.00 71 1023.6
20201022151705 74 218 3.0 7.0 0.00 0.00 0.00 71 1023.6
20201022151206 74 235 3.0 7.0 0.00 0.00 0.00 71 1023.7
20201022150714 74 250 3.0 8.0 0.00 0.00 0.00 73 1023.8
20201022150214 74 216 3.0 8.0 0.00 0.00 0.00 72 1023.8
20201022145706 74 270 3.0 7.0 0.00 0.00 0.00 71 1023.8
20201022145210 73 242 3.0 6.0 0.00 0.00 0.00 74 1023.7
20201022144706 73 262 3.0 6.0 0.00 0.00 0.00 75 1023.8
20201022144207 72 217 2.0 7.0 0.00 0.00 0.00 76 1023.9
20201022143707 72 194 3.0 7.0 0.00 0.00 0.00 77 1024.0
20201022143210 71 147 2.0 7.0 0.00 0.00 0.00 78 1024.0
20201022142711 70 259 2.0 6.0 0.00 0.00 0.00 80 1024.1
20201022142206 69 220 2.0 6.0 0.00 0.00 0.00 80 1024.1
20201022141707 69 226 2.0 5.0 0.00 0.00 0.00 81 1024.0
20201022141206 68 180 2.0 5.0 0.00 0.00 0.00 83 1024.0
20201022140706 67 196 2.0 7.0 0.00 0.00 0.00 84 1024.1
20201022140206 67 280 2.0 7.0 0.00 0.00 0.00 86 1024.1
20201022135957 66 199 2.0 5.0 0.00 0.00 0.00 87 1024.2
20201022135545 65 194 2.0 4.0 0.00 0.00 0.00 87 1024.2
20201022134707 64 191 2.0 4.0 0.00 0.00 0.00 89 1024.2
20201022134203 64 217 2.0 5.0 0.00 0.00 0.00 90 1024.1
20201022133704 63 163 2.0 5.0 0.00 0.00 0.00 91 1024.2
20201022133207 62 205 2.0 4.0 0.00 0.00 0.00 91 1024.1
20201022132707 61 215 1.0 4.0 0.00 0.00 0.00 92 1024.1
20201022132208 60 256 1.0 2.0 0.00 0.00 0.00 92 1024.1
20201022131707 59 169 1.0 2.0 0.00 0.00 0.00 93 1024.1
20201022131205 59 81 1.0 2.0 0.00 0.00 0.00 93 1024.1
20201022130709 58 156 1.0 2.0 0.00 0.00 0.00 93 1024.1
20201022130207 57 161 1.0 2.0 0.00 0.00 0.00 94 1024.1
20201022125705 56 91 0.0 1.0 0.00 0.00 0.00 95 1024.1
20201022125205 56 0 0.0 1.0 0.00 0.00 0.00 95 1024.0
20201022124704 55 57 0.0 0.0 0.00 0.00 0.00 95 1024.0
20201022124208 55 0 0.0 0.0 0.00 0.00 0.00 94 1024.0
20201022123705 55 0 0.0 0.0 0.00 0.00 0.00 94 1024.0
20201022123208 55 0 0.0 0.0 0.00 0.00 0.00 94 1024.0
20201022122704 54 0 0.0 0.0 0.00 0.00 0.00 94 1023.9
20201022122208 54 0 0.0 0.0 0.00 0.00 0.00 94 1023.8
20201022121705 54 0 0.0 0.0 0.00 0.00 0.00 94 1023.8
20201022121204 54 0 0.0 0.0 0.00 0.00 0.00 94 1023.8
20201022120706 54 0 0.0 0.0 0.00 0.00 0.00 94 1023.7
20201022120205 54 0 0.0 0.0 0.00 0.00 0.00 93 1023.6
20201022115707 54 0 0.0 0.0 0.00 0.00 0.00 93 1023.6
20201022115205 54 0 0.0 0.0 0.00 0.00 0.00 93 1023.7
20201022114704 54 0 0.0 0.0 0.00 0.00 0.00 93 1023.6
20201022114208 54 0 0.0 0.0 0.00 0.00 0.00 93 1023.6
20201022113705 54 0 0.0 0.0 0.00 0.00 0.00 93 1023.6
20201022113202 55 0 0.0 0.0 0.00 0.00 0.00 94 1023.5
20201022112704 54 0 0.0 0.0 0.00 0.00 0.00 93 1023.6
20201022112202 55 0 0.0 0.0 0.00 0.00 0.00 94 1023.6
20201022111703 55 0 0.0 0.0 0.00 0.00 0.00 93 1023.5
20201022111203 55 0 0.0 0.0 0.00 0.00 0.00 93 1023.6
20201022110702 55 0 0.0 0.0 0.00 0.00 0.00 94 1023.6
20201022110203 55 0 0.0 0.0 0.00 0.00 0.00 93 1023.6
20201022105702 55 0 0.0 0.0 0.00 0.00 0.00 94 1023.6
20201022105204 55 0 0.0 0.0 0.00 0.00 0.00 94 1023.6
20201022104703 55 0 0.0 0.0 0.00 0.00 0.00 95 1023.6
20201022104204 55 0 0.0 1.0 0.00 0.00 0.00 95 1023.6
20201022103702 56 0 0.0 1.0 0.00 0.00 0.00 95 1023.6
20201022103202 56 0 0.0 0.0 0.00 0.00 0.00 95 1023.6
20201022102705 56 0 0.0 0.0 0.00 0.00 0.00 95 1023.6
20201022102201 56 0 0.0 0.0 0.00 0.00 0.00 96 1023.3
20201022101702 56 0 0.0 0.0 0.00 0.00 0.00 96 1023.3
20201022101202 56 0 0.0 0.0 0.00 0.00 0.00 95 1023.3
20201022100705 55 0 0.0 0.0 0.00 0.00 0.00 95 1023.2
20201022100205 56 0 0.0 0.0 0.00 0.00 0.00 94 1023.3
20201022095700 56 0 0.0 0.0 0.00 0.00 0.00 95 1023.2
20201022095203 56 0 0.0 0.0 0.00 0.00 0.00 95 1023.1
20201022094659 56 0 0.0 2.0 0.00 0.00 0.00 95 1023.0
20201022094159 56 0 0.0 2.0 0.00 0.00 0.00 95 1022.9
20201022093701 56 0 0.0 0.0 0.00 0.00 0.00 95 1022.9
20201022093200 56 0 0.0 2.0 0.00 0.00 0.00 95 1022.9
20201022092701 56 0 0.0 2.0 0.00 0.00 0.00 95 1022.8
20201022092201 56 0 0.0 1.0 0.00 0.00 0.00 95 1022.8
20201022091701 56 0 0.0 2.0 0.00 0.00 0.00 95 1022.7
20201022091203 56 0 0.0 2.0 0.00 0.00 0.00 95 1022.7
20201022090659 56 0 0.0 0.0 0.00 0.00 0.00 95 1022.7
20201022090201 56 0 0.0 0.0 0.00 0.00 0.00 95 1022.7
20201022085701 56 0 0.0 0.0 0.00 0.00 0.00 94 1022.7
20201022085200 56 0 0.0 0.0 0.00 0.00 0.00 94 1022.7
20201022084702 56 0 0.0 0.0 0.00 0.00 0.00 94 1022.7
20201022084209 56 0 0.0 0.0 0.00 0.00 0.00 94 1022.7
20201022083701 56 0 0.0 2.0 0.00 0.00 0.00 94 1022.6
20201022083201 56 0 0.0 2.0 0.00 0.00 0.00 94 1022.7
20201022082702 56 0 0.0 2.0 0.00 0.00 0.00 94 1022.7
20201022082204 56 0 0.0 2.0 0.00 0.00 0.00 94 1022.8
20201022081701 56 0 0.0 0.0 0.00 0.00 0.00 94 1022.8
20201022081157 56 0 0.0 2.0 0.00 0.00 0.00 94 1022.8
20201022080658 57 0 0.0 2.0 0.00 0.00 0.00 95 1022.7
20201022080200 57 0 0.0 1.0 0.00 0.00 0.00 95 1022.8
20201022075702 57 0 0.0 1.0 0.00 0.00 0.00 95 1022.9
20201022075202 57 0 0.0 0.0 0.00 0.00 0.00 94 1022.9
20201022074658 57 0 0.0 0.0 0.00 0.00 0.00 94 1022.8
20201022074201 57 0 0.0 0.0 0.00 0.00 0.00 94 1022.8
20201022073658 57 0 0.0 0.0 0.00 0.00 0.00 94 1022.9
20201022073210 57 0 0.0 0.0 0.00 0.00 0.00 94 1022.9
20201022072659 57 0 0.0 0.0 0.00 0.00 0.00 94 1022.9
20201022072158 57 0 0.0 2.0 0.00 0.00 0.00 94 1023.0
20201022071703 57 0 0.0 2.0 0.00 0.00 0.00 94 1023.0
20201022071159 57 0 0.0 3.0 0.00 0.00 0.00 94 1023.1
20201022070658 57 0 0.0 3.0 0.00 0.00 0.00 94 1023.1
20201022070159 58 0 0.0 2.0 0.00 0.00 0.00 94 1023.0
20201022065659 58 0 0.0 2.0 0.00 0.00 0.00 95 1023.1
20201022065202 58 0 0.0 2.0 0.00 0.00 0.00 95 1023.1
20201022064656 58 67 0.0 2.0 0.00 0.00 0.00 95 1023.1
20201022064201 58 0 0.0 2.0 0.00 0.00 0.00 96 1023.1
20201022063656 58 0 0.0 0.0 0.00 0.00 0.00 96 1023.1
20201022063155 58 0 0.0 3.0 0.00 0.00 0.00 96 1023.1
20201022062656 58 0 1.0 3.0 0.00 0.00 0.00 96 1023.2
20201022062156 58 45 1.0 3.0 0.00 0.00 0.00 95 1023.1
20201022061657 58 77 0.0 2.0 0.00 0.00 0.00 95 1023.0
20201022061158 58 107 0.0 2.0 0.00 0.00 0.00 95 1023.0
20201022060655 57 0 0.0 2.0 0.00 0.00 0.00 94 1023.0
20201022060201 57 0 0.0 0.0 0.00 0.00 0.00 93 1023.1
20201022055707 58 0 0.0 0.0 0.00 0.00 0.00 93 1023.2
20201022055158 58 0 0.0 0.0 0.00 0.00 0.00 93 1023.2
20201022054656 58 0 0.0 2.0 0.00 0.00 0.00 93 1023.3
20201022054203 58 0 0.0 2.0 0.00 0.00 0.00 94 1023.3
20201022053657 59 0 0.0 1.0 0.00 0.00 0.00 94 1023.5